TimePDT,TemperatureF,Dew PointF,Humidity,Sea Level PressureIn,VisibilityMPH,Wind Direction,Wind SpeedMPH,Gust SpeedMPH,PrecipitationIn,Events,Conditions,WindDirDegrees,DateUTC
12:53 AM,48.9,37.9,66,30.09,10.0,WNW,3.5,-,N/A,,Clear,290,2013-03-23 07:53:00
1:53 AM,50.0,35.1,57,30.09,10.0,Calm,Calm,-,N/A,,Clear,0,2013-03-23 08:53:00
2:53 AM,45.0,36.0,71,30.09,10.0,Calm,Calm,-,N/A,,Clear,0,2013-03-23 09:53:00
3:53 AM,44.1,35.1,71,30.09,10.0,Calm,Calm,-,N/A,,Clear,0,2013-03-23 10:53:00
4:53 AM,44.1,39.0,82,30.09,10.0,Calm,Calm,-,N/A,,Clear,0,2013-03-23 11:53:00
5:53 AM,44.1,37.9,79,30.10,10.0,SE,3.5,-,N/A,,Clear,130,2013-03-23 12:53:00
6:53 AM,44.1,37.9,79,30.11,10.0,Calm,Calm,-,N/A,,Clear,0,2013-03-23 13:53:00
7:53 AM,45.0,39.0,80,30.12,10.0,Calm,Calm,-,N/A,,Clear,0,2013-03-23 14:53:00
8:53 AM,50.0,39.0,66,30.14,10.0,Calm,Calm,-,N/A,,Clear,0,2013-03-23 15:53:00
9:53 AM,57.9,27.0,31,30.13,10.0,Variable,3.5,-,N/A,,Clear,0,2013-03-23 16:53:00
10:53 AM,61.0,23.0,23,30.12,10.0,WSW,4.6,-,N/A,,Clear,240,2013-03-23 17:53:00
11:53 AM,64.0,24.1,22,30.12,10.0,WNW,13.8,17.3,N/A,,Clear,300,2013-03-23 18:53:00
12:53 PM,64.9,25.0,22,30.11,10.0,West,11.5,-,N/A,,Clear,280,2013-03-23 19:53:00
1:53 PM,66.0,28.0,24,30.09,10.0,West,8.1,-,N/A,,Clear,280,2013-03-23 20:53:00
2:53 PM,66.0,30.0,26,30.07,10.0,NW,8.1,-,N/A,,Clear,310,2013-03-23 21:53:00
3:53 PM,66.0,28.9,25,30.05,10.0,WNW,9.2,-,N/A,,Clear,290,2013-03-23 22:53:00
4:53 PM,66.9,30.9,26,30.04,10.0,WNW,10.4,-,N/A,,Clear,300,2013-03-23 23:53:00
5:53 PM,64.9,35.1,33,30.04,10.0,WNW,10.4,-,N/A,,Clear,300,2013-03-24 00:53:00
6:53 PM,60.1,41.0,49,30.05,10.0,NW,12.7,-,N/A,,Clear,310,2013-03-24 01:53:00
7:53 PM,57.0,39.9,53,30.07,10.0,NW,10.4,-,N/A,,Clear,310,2013-03-24 02:53:00
8:53 PM,52.0,42.1,69,30.08,10.0,WNW,4.6,-,N/A,,Clear,290,2013-03-24 03:53:00
9:53 PM,53.1,43.0,69,30.10,10.0,Calm,Calm,-,N/A,,Clear,0,2013-03-24 04:53:00
10:53 PM,52.0,44.1,74,30.10,10.0,Calm,Calm,-,N/A,,Clear,0,2013-03-24 05:53:00
11:53 PM,52.0,44.1,74,30.09,10.0,Calm,Calm,-,N/A,,Clear,0,2013-03-24 06:53:00